Montpelier, VT

3:53 PM EST on December 11, 2019 (GMT -0500)
Knapp State

Weather History for KMPV - August, 2019

Change the Weather History Date:

Tuesday, August 13, 2019

  Actual Average Record
Temperature  
Mean Temperature 66 °F 66 °F  
Max Temperature 78 °F 77 °F 91 °F (1988)
Min Temperature 54 °F 54 °F 39 °F (1950)
Degree Days  
Heating Degree Days 0 2  
Month to date heating degree days 19 22  
Since 1 June heating degree days 172 183  
Since 1 July heating degree days 28 62  
Cooling Degree Days 1 3  
Month to date cooling degree days 16 39  
Year to date cooling degree days 174 207  
Since 1 June cooling degree days 173 197  
Growing Degree Days 16 (Base 50)    
Moisture  
Dew Point 63 °F    
Average Humidity 84    
Maximum Humidity 100    
Minimum Humidity 53    
Precipitation  
Precipitation 0.14 in 0.13 in 1.76 in (1997)
Month to date precipitation 2.08 1.93  
Year to date precipitation 32.63 22.72  
Sea Level Pressure  
Sea Level Pressure 29.83 in    
Wind  
Wind Speed 3 mph ()    
Max Wind Speed 14 mph    
Max Gust Speed 18 mph    
Visibility 9.4 miles    
Events Rain    
T = Trace of Precipitation, MM = Missing Value Source: Averaged Metar Reports

Daily Weather History Graph

Daily Weather History Graph

Search for Another Location

Airport or City:

Astronomy

Aug. 13, 2019 Rise Set
Actual Time 5:51 AM EDT 7:58 PM EDT
Civil Twilight 5:19 AM EDT 8:29 PM EDT
Nautical Twilight 4:40 AM EDT 9:08 PM EDT
Astronomical Twilight 3:57 AM EDT 9:51 PM EDT
Moon 7:15 PM EDT (8/13) 3:45 AM EDT (8/13)
Length of Visible Light 15h 10m
Length of Day
14h 07m
Waxing Gibbous, 97% of the Moon is Illuminated
Aug 13
Waxing Gibbous
Aug 15
Full
Aug 23
Last Quarter
Aug 30
New
Sep 5
First Quarter

Hourly Weather History & Observations

Time (EDT) Temp. Dew Point Humidity Pressure Visibility Wind Dir Wind Speed Gust Speed Precip Events Conditions
12:51 AM 72.0 °F 59.0 °F 64% 29.82 in 10.0 mi WSW 9.2 mph - N/A   Scattered Clouds
1:51 AM 71.1 °F 60.1 °F 68% 29.81 in 10.0 mi West 3.5 mph - N/A   Overcast
2:51 AM 66.0 °F 62.1 °F 87% 29.82 in 10.0 mi ESE 3.5 mph - 0.01 in   Mostly Cloudy
3:51 AM 64.9 °F 63.0 °F 93% 29.81 in 10.0 mi WSW 3.5 mph - N/A   Overcast
4:10 AM 64.9 °F 64.0 °F 97% 29.82 in 10.0 mi Calm Calm - N/A   Overcast
4:46 AM 64.4 °F 64.4 °F 100% 29.82 in 7.0 mi WSW 3.5 mph - 0.06 in Rain Rain
4:51 AM 64.9 °F 64.0 °F 97% 29.81 in 8.0 mi SW 3.5 mph - 0.07 in Rain Light Rain
5:51 AM 64.9 °F 64.0 °F 97% 29.82 in 10.0 mi Calm Calm - 0.05 in   Mostly Cloudy
6:06 AM 64.9 °F 64.9 °F 100% 29.84 in 9.0 mi Calm Calm - N/A   Mostly Cloudy
6:17 AM 64.0 °F 64.0 °F 100% 29.83 in 1.5 mi Calm Calm - 0.00 in Rain Light Rain
6:19 AM 64.9 °F 64.0 °F 97% 29.83 in 3.0 mi Calm Calm - 0.00 in Rain Light Rain
6:44 AM 64.9 °F 64.0 °F 97% 29.83 in 10.0 mi South 3.5 mph - 0.01 in   Mostly Cloudy
6:51 AM 64.9 °F 64.0 °F 97% 29.82 in 9.0 mi Calm Calm - 0.01 in   Mostly Cloudy
7:30 AM 66.0 °F 64.9 °F 96% 29.84 in 10.0 mi Calm Calm - N/A   Overcast
7:42 AM 66.0 °F 64.9 °F 96% 29.84 in 8.0 mi Calm Calm - N/A   Overcast
7:51 AM 66.9 °F 64.9 °F 93% 29.83 in 10.0 mi Calm Calm - N/A   Overcast
8:05 AM 66.9 °F 66.0 °F 97% 29.84 in 10.0 mi Calm Calm - N/A   Mostly Cloudy
8:51 AM 69.1 °F 66.9 °F 93% 29.82 in 10.0 mi Calm Calm - N/A   Partly Cloudy
9:15 AM 71.1 °F 66.0 °F 84% 29.83 in 10.0 mi Calm Calm - N/A   Mostly Cloudy
9:31 AM 70.0 °F 66.9 °F 90% 29.83 in 10.0 mi Variable 3.5 mph - N/A   Overcast
9:40 AM 71.1 °F 68.0 °F 90% 29.83 in 10.0 mi Variable 3.5 mph - N/A   Overcast
9:51 AM 71.1 °F 68.0 °F 90% 29.82 in 10.0 mi ENE 4.6 mph - N/A   Mostly Cloudy
10:10 AM 71.1 °F 66.9 °F 87% 29.83 in 10.0 mi NE 5.8 mph - N/A   Mostly Cloudy
10:19 AM 71.1 °F 66.9 °F 87% 29.83 in 10.0 mi Calm Calm - N/A   Overcast
10:51 AM 72.0 °F 66.9 °F 84% 29.82 in 10.0 mi Calm Calm - N/A   Overcast
11:02 AM 72.0 °F 66.0 °F 81% 29.83 in 10.0 mi Calm Calm - N/A   Overcast
11:10 AM 73.0 °F 66.9 °F 81% 29.83 in 10.0 mi North 3.5 mph - N/A   Overcast
11:51 AM 73.0 °F 66.9 °F 81% 29.82 in 10.0 mi North 5.8 mph - N/A   Overcast
12:51 PM 75.0 °F 63.0 °F 66% 29.80 in 10.0 mi West 4.6 mph - N/A   Scattered Clouds
1:51 PM 73.9 °F 63.0 °F 68% 29.79 in 10.0 mi NW 8.1 mph - N/A   Mostly Cloudy
2:51 PM 75.9 °F 60.1 °F 58% 29.78 in 10.0 mi NNW 8.1 mph 17.3 mph N/A   Mostly Cloudy
3:51 PM 75.9 °F 57.9 °F 54% 29.79 in 10.0 mi NNW 6.9 mph - N/A   Overcast
4:51 PM 77.0 °F 60.1 °F 56% 29.79 in 10.0 mi NNW 9.2 mph - N/A   Partly Cloudy
5:51 PM 75.0 °F 57.9 °F 55% 29.81 in 10.0 mi NNW 11.5 mph - N/A   Clear
6:51 PM 73.0 °F 55.9 °F 55% 29.83 in 10.0 mi North 6.9 mph - N/A   Clear
7:51 PM 68.0 °F 55.9 °F 65% 29.85 in 10.0 mi NNW 3.5 mph - N/A   Clear
8:51 PM 64.0 °F 55.0 °F 73% 29.87 in 10.0 mi Calm Calm - N/A   Clear
9:51 PM 57.9 °F 55.0 °F 90% 29.89 in 10.0 mi Calm Calm - N/A   Clear
10:51 PM 57.0 °F 54.0 °F 89% 29.90 in 10.0 mi Calm Calm - N/A   Clear
11:51 PM 55.9 °F 54.0 °F 93% 29.90 in 10.0 mi Calm Calm - N/A   Clear